CW6353 Weather Reports


Display with metric or nautical units.
time (UTC)temp
F
wind
direction
speed
MPH
gust
MPH
rain 1hr
in
rain 24hr
in
rain mn
in
humidity
%
barometer
mb
20260903213029 82 42 0.0 7.0 0.14 0.20 0.14 77 1014.4
20260903212515 85 274 5.0 25.0 0.14 0.20 0.14 70 1014.4
20260903212012 87 271 5.0 26.0 0.13 0.19 0.13 55 1014.7
20260903211519 92 109 11.0 26.0 0.08 0.14 0.08 59 1014.7
20260903211011 92 156 1.0 5.0 0.00 0.06 0.00 49 1014.5
20260903210509 92 147 1.0 5.0 0.00 0.06 0.00 50 1014.5
20260903210018 93 162 1.0 8.0 0.00 0.06 0.00 48 1014.4
20260903205515 93 82 1.0 10.0 0.00 0.06 0.00 46 1014.4
20260903205012 94 87 2.0 10.0 0.00 0.06 0.00 46 1014.4
20260903204526 94 137 5.0 10.0 0.00 0.06 0.00 45 1014.5
20260903204014 95 117 5.0 8.0 0.00 0.06 0.00 43 1014.5
20260903203514 95 180 3.0 5.0 0.00 0.06 0.00 43 1014.5
20260903203045 94 181 2.0 7.0 0.00 0.06 0.00 46 1014.5
20260903202516 94 130 4.0 11.0 0.00 0.06 0.00 46 1014.7
20260903202017 94 111 4.0 13.0 0.00 0.06 0.00 45 1014.7
20260903201535 96 113 7.0 13.0 0.00 0.06 0.00 44 1014.9
20260903201010 97 153 5.0 12.0 0.00 0.06 0.00 42 1015.0
20260903200517 98 96 7.0 11.0 0.00 0.06 0.00 40 1015.0
20260903200017 97 158 5.0 13.0 0.00 0.06 0.00 38 1014.9
20260903195511 98 70 10.0 13.0 0.00 0.06 0.00 40 1015.1
20260903195012 99 150 4.0 15.0 0.00 0.06 0.00 41 1015.1
20260903194523 98 128 5.0 15.0 0.00 0.06 0.00 40 1015.1
20260903194017 97 154 6.0 13.0 0.00 0.06 0.00 41 1015.2
20260903193517 97 121 4.0 13.0 0.00 0.06 0.00 41 1015.3
20260903193031 96 117 6.0 14.0 0.00 0.06 0.00 40 1015.5
20260903192513 97 118 9.0 14.0 0.00 0.06 0.00 39 1015.5
20260903192012 98 129 8.0 12.0 0.00 0.06 0.00 41 1015.6
20260903191519 98 159 6.0 12.0 0.00 0.06 0.00 40 1015.6
20260903191014 98 167 5.0 15.0 0.00 0.06 0.00 42 1015.7
20260903190514 97 165 4.0 15.0 0.00 0.06 0.00 40 1015.7
20260903190034 97 165 4.0 12.0 0.00 0.06 0.00 44 1015.6
20260903185518 96 138 6.0 12.0 0.00 0.06 0.00 44 1015.7
20260903185014 96 186 5.0 13.0 0.00 0.06 0.00 43 1015.7
20260903184520 95 60 5.0 16.0 0.00 0.06 0.00 48 1015.9
20260903184015 95 106 4.0 17.0 0.00 0.06 0.00 47 1016.0
20260903183509 95 128 11.0 19.0 0.00 0.06 0.00 45 1016.2
20260903183036 97 84 10.0 19.0 0.00 0.06 0.00 43 1016.2
20260903182517 96 89 3.0 10.0 0.00 0.06 0.00 47 1016.2
20260903182016 96 159 4.0 12.0 0.00 0.06 0.00 45 1016.4
20260903181512 95 131 7.0 12.0 0.00 0.06 0.00 44 1016.4
20260903181003 95 158 5.0 12.0 0.00 0.06 0.00 46 1016.6
20260903180507 95 161 5.0 11.0 0.00 0.06 0.00 48 1016.6
20260903180017 94 198 6.0 11.0 0.00 0.06 0.00 49 1016.7
20260903175502 93 142 1.0 12.0 0.00 0.06 0.00 49 1016.6
20260903175007 93 105 5.0 12.0 0.00 0.06 0.00 48 1016.7
20260903174505 95 163 4.0 12.0 0.00 0.06 0.00 47 1016.7
20260903174003 95 63 4.0 12.0 0.00 0.06 0.00 45 1016.7
20260903173504 95 119 2.0 9.0 0.00 0.06 0.00 49 1016.8
20260903173004 95 182 4.0 11.0 0.00 0.06 0.00 47 1017.0
20260903172504 95 198 5.0 11.0 0.00 0.06 0.00 47 1017.1
20260903172004 95 153 4.0 11.0 0.00 0.06 0.00 48 1017.2
20260903171503 94 219 5.0 12.0 0.00 0.06 0.00 50 1017.3
20260903171004 93 147 3.0 12.0 0.00 0.06 0.00 53 1017.4
20260903170503 93 128 7.0 11.0 0.00 0.06 0.00 50 1017.5
20260903170016 94 88 6.0 11.0 0.00 0.06 0.00 49 1017.4
20260903165504 93 57 1.0 9.0 0.00 0.06 0.00 53 1017.5
20260903165004 92 96 4.0 11.0 0.00 0.06 0.00 51 1017.5
20260903164511 93 57 8.0 11.0 0.00 0.06 0.00 52 1017.5
20260903164004 93 61 2.0 7.0 0.00 0.06 0.00 52 1017.6
20260903163503 93 53 5.0 7.0 0.00 0.06 0.00 51 1017.6
20260903163015 92 92 2.0 10.0 0.00 0.06 0.00 54 1017.7
20260903162506 92 104 5.0 10.0 0.00 0.06 0.00 57 1017.6
20260903162004 91 32 3.0 9.0 0.00 0.06 0.00 57 1017.7
20260903161504 92 59 4.0 9.0 0.00 0.06 0.00 55 1017.8
20260903161006 92 107 5.0 9.0 0.00 0.06 0.00 55 1017.9
20260903160504 92 313 0.0 6.0 0.00 0.06 0.00 57 1018.0
20260903160007 92 107 3.0 6.0 0.00 0.06 0.00 57 1018.1
20260903155503 92 173 3.0 6.0 0.00 0.06 0.00 56 1018.1
20260903155004 92 59 2.0 8.0 0.00 0.06 0.00 57 1018.1
20260903154506 91 150 2.0 9.0 0.00 0.06 0.00 57 1018.2
20260903154008 91 99 6.0 9.0 0.00 0.06 0.00 60 1018.2
20260903153507 91 113 5.0 8.0 0.00 0.06 0.00 56 1018.3
20260903153004 91 175 3.0 7.0 0.00 0.06 0.00 58 1018.3
20260903152511 91 130 3.0 7.0 0.00 0.06 0.00 54 1018.2
20260903152007 91 176 3.0 9.0 0.00 0.06 0.00 58 1018.2
20260903151505 91 66 4.0 9.0 0.00 0.06 0.00 54 1018.2
20260903151003 91 40 1.0 6.0 0.00 0.06 0.00 55 1018.2
20260903150503 91 80 4.0 6.0 0.00 0.06 0.00 58 1018.1
20260903150006 91 63 2.0 4.0 0.00 0.06 0.00 58 1018.1
20260903145505 91 123 2.0 4.0 0.00 0.06 0.00 61 1018.1
20260903145004 91 57 1.0 3.0 0.00 0.06 0.00 61 1018.1
20260903144532 90 51 2.0 3.0 0.00 0.06 0.00 59 1018.1
20260903144005 90 12 1.0 3.0 0.00 0.06 0.00 61 1018.0
20260903143504 90 70 2.0 3.0 0.00 0.06 0.00 63 1017.9
20260903143020 89 46 0.0 1.0 0.00 0.06 0.00 65 1017.9
20260903142506 88 40 0.0 3.0 0.00 0.06 0.00 67 1018.0
20260903142011 88 40 1.0 3.0 0.00 0.06 0.00 68 1017.9
20260903141515 88 124 0.0 0.0 0.00 0.06 0.00 66 1017.9
20260903141003 87 75 0.0 0.0 0.00 0.06 0.00 68 1017.9
20260903140510 87 243 0.0 0.0 0.00 0.06 0.00 69 1017.9
20260903140010 86 295 0.0 0.0 0.00 0.06 0.00 71 1017.9
20260903135504 86 126 0.0 0.0 0.00 0.06 0.00 76 1017.9
20260903135005 85 248 0.0 0.0 0.00 0.06 0.00 73 1017.9
20260903134505 84 126 0.0 0.0 0.00 0.06 0.00 74 1017.9
20260903134003 84 126 0.0 0.0 0.00 0.06 0.00 74 1017.9
20260903133509 84 124 0.0 0.0 0.00 0.06 0.00 74 1018.0
20260903133008 83 150 0.0 0.0 0.00 0.06 0.00 77 1018.0
20260903132512 83 97 0.0 0.0 0.00 0.06 0.00 78 1018.0
20260903132007 82 90 0.0 0.0 0.00 0.06 0.00 80 1018.0
20260903131503 81 90 0.0 0.0 0.00 0.06 0.00 80 1017.9
20260903131009 81 90 0.0 0.0 0.00 0.06 0.00 82 1017.9
20260903130508 80 90 0.0 0.0 0.00 0.06 0.00 84 1017.9
20260903130024 79 98 0.0 0.0 0.00 0.06 0.00 85 1017.9
20260903125512 78 107 0.0 0.0 0.00 0.06 0.00 86 1017.8
20260903125007 78 165 0.0 0.0 0.00 0.06 0.00 89 1017.8
20260903124525 77 165 0.0 0.0 0.00 0.06 0.00 92 1017.6
20260903124004 76 165 0.0 0.0 0.00 0.06 0.00 93 1017.6
20260903123506 75 165 0.0 0.0 0.00 0.06 0.00 93 1017.6
20260903123009 74 168 0.0 0.0 0.00 0.06 0.00 93 1017.6
20260903122508 74 167 0.0 0.0 0.00 0.06 0.00 93 1017.6
20260903122007 73 166 0.0 0.0 0.00 0.06 0.00 93 1017.7
20260903121528 73 165 0.0 0.0 0.00 0.06 0.00 94 1017.6
20260903121005 72 165 0.0 0.0 0.00 0.06 0.00 93 1017.6
20260903120504 72 166 0.0 0.0 0.00 0.06 0.00 93 1017.7
20260903120005 71 166 0.0 0.0 0.00 0.06 0.00 93 1017.7
20260903115503 71 166 0.0 0.0 0.00 0.06 0.00 93 1017.7
20260903115002 71 166 0.0 0.0 0.00 0.06 0.00 92 1017.6
20260903114505 71 166 0.0 0.0 0.00 0.06 0.00 92 1017.6
20260903114004 71 166 0.0 1.0 0.00 0.06 0.00 92 1017.6
20260903113502 71 166 0.0 2.0 0.00 0.06 0.00 92 1017.5
20260903113018 71 166 0.0 3.0 0.00 0.06 0.00 92 1017.4
20260903112502 71 166 0.0 3.0 0.00 0.06 0.00 92 1017.3
20260903112001 71 166 0.0 3.0 0.00 0.06 0.00 92 1017.3
20260903111510 71 166 0.0 2.0 0.00 0.06 0.00 92 1017.4
20260903111005 71 165 0.0 1.0 0.00 0.06 0.00 92 1017.3
20260903110502 71 165 0.0 0.0 0.00 0.06 0.00 92 1017.3
20260903110003 71 165 0.0 0.0 0.00 0.06 0.00 92 1017.2
20260903105503 71 165 0.0 0.0 0.00 0.06 0.00 92 1017.1
20260903105003 71 165 0.0 1.0 0.00 0.06 0.00 92 1017.2
20260903104504 71 171 0.0 1.0 0.00 0.06 0.00 92 1017.1
20260903104002 71 168 0.0 0.0 0.00 0.06 0.00 92 1017.1
20260903103504 71 167 0.0 0.0 0.00 0.06 0.00 92 1017.0
20260903103004 71 167 0.0 0.0 0.00 0.06 0.00 92 1017.1
20260903102504 71 167 0.0 1.0 0.00 0.06 0.00 92 1017.2
20260903102004 72 167 0.0 1.0 0.00 0.06 0.00 92 1017.0
20260903101510 72 167 0.0 0.0 0.00 0.06 0.00 92 1016.8
20260903101007 72 168 0.0 0.0 0.00 0.06 0.00 92 1016.9
20260903100503 72 168 0.0 0.0 0.00 0.06 0.00 92 1017.0
20260903100007 72 167 0.0 0.0 0.00 0.06 0.00 92 1017.0
20260903095502 72 166 0.0 0.0 0.00 0.06 0.00 92 1017.0
20260903095002 72 166 0.0 0.0 0.00 0.06 0.00 92 1017.1
20260903094511 72 166 0.0 0.0 0.00 0.06 0.00 92 1017.1
20260903094004 72 166 0.0 0.0 0.00 0.06 0.00 92 1017.0
20260903093505 72 166 0.0 0.0 0.00 0.06 0.00 92 1016.8
20260903093006 72 166 0.0 0.0 0.00 0.06 0.00 92 1016.8
20260903092506 72 166 0.0 0.0 0.00 0.06 0.00 92 1017.0
20260903092004 72 166 0.0 1.0 0.00 0.06 0.00 92 1016.8
20260903091508 72 167 0.0 1.0 0.00 0.06 0.00 92 1016.8
20260903091003 72 166 0.0 0.0 0.00 0.06 0.00 92 1016.9
20260903090507 72 166 0.0 2.0 0.00 0.06 0.00 92 1016.7
20260903090009 72 166 0.0 2.0 0.00 0.06 0.00 92 1016.7
20260903085502 72 166 0.0 0.0 0.00 0.06 0.00 92 1016.7
20260903085009 72 166 0.0 0.0 0.00 0.06 0.00 92 1016.7
20260903084508 72 167 0.0 0.0 0.00 0.06 0.00 92 1016.8
20260903084003 72 166 0.0 0.0 0.00 0.06 0.00 92 1016.7
20260903083507 72 166 0.0 0.0 0.00 0.06 0.00 92 1016.8
20260903083003 72 165 0.0 2.0 0.00 0.06 0.00 92 1016.9
20260903082503 72 165 0.0 2.0 0.00 0.06 0.00 92 1016.8
20260903082004 72 198 0.0 2.0 0.00 0.06 0.00 92 1016.8
20260903081505 72 198 1.0 2.0 0.00 0.06 0.00 92 1016.7
20260903081006 72 151 0.0 2.0 0.00 0.06 0.00 92 1016.8
20260903080503 72 151 0.0 2.0 0.00 0.06 0.00 92 1016.8
20260903080010 72 151 0.0 2.0 0.00 0.06 0.00 92 1016.8
20260903075509 72 151 1.0 2.0 0.00 0.06 0.00 92 1016.8
20260903075006 72 151 1.0 2.0 0.00 0.06 0.00 92 1016.7
20260903074517 72 151 1.0 4.0 0.00 0.06 0.00 92 1016.8
20260903074006 72 143 1.0 4.0 0.00 0.06 0.00 92 1016.8
20260903073503 72 114 0.0 1.0 0.00 0.06 0.00 92 1016.9
20260903073030 72 114 0.0 0.0 0.00 0.06 0.00 92 1017.0
20260903072503 72 114 0.0 0.0 0.00 0.06 0.00 92 1016.9
20260903072003 72 114 0.0 0.0 0.00 0.06 0.00 92 1017.0
20260903071507 72 114 0.0 0.0 0.00 0.06 0.00 92 1017.1
20260903071005 72 114 0.0 0.0 0.00 0.06 0.00 92 1017.0
20260903070504 72 114 0.0 0.0 0.00 0.06 0.00 92 1017.0
20260903070012 72 114 0.0 0.0 0.00 0.06 0.00 91 1017.1
20260903065504 72 114 0.0 0.0 0.00 0.06 0.00 91 1017.1
20260903065008 72 114 0.0 0.0 0.00 0.06 0.00 91 1017.0
20260903064511 72 114 0.0 0.0 0.00 0.06 0.00 91 1017.1
20260903064010 72 114 0.0 0.0 0.00 0.06 0.00 91 1017.1
20260903063510 72 114 0.0 0.0 0.00 0.06 0.00 91 1017.2
20260903063009 72 114 0.0 0.0 0.00 0.06 0.00 91 1017.2
20260903062512 72 114 0.0 0.0 0.00 0.06 0.00 91 1017.2
20260903062009 72 114 0.0 0.0 0.00 0.06 0.00 91 1017.2
20260903061507 72 114 0.0 0.0 0.00 0.06 0.00 91 1017.2
20260903061004 72 114 0.0 0.0 0.00 0.06 0.00 91 1017.1
20260903060504 72 114 0.0 0.0 0.00 0.06 0.00 91 1017.2
20260903060006 72 114 0.0 0.0 0.00 0.06 0.00 91 1017.2
20260903055506 72 114 0.0 0.0 0.00 0.06 0.00 91 1017.3
20260903055003 72 114 0.0 0.0 0.00 0.06 0.00 91 1017.2
20260903054517 72 114 0.0 0.0 0.00 0.06 0.00 91 1017.2
20260903054008 73 114 0.0 0.0 0.00 0.06 0.00 91 1017.2
20260903053504 73 114 0.0 0.0 0.00 0.06 0.00 91 1017.1
20260903053022 73 114 0.0 0.0 0.00 0.06 0.00 91 1017.1
20260903052506 73 114 0.0 0.0 0.00 0.06 0.00 91 1017.1
20260903052012 73 114 0.0 0.0 0.00 0.06 0.00 91 1017.1
20260903051538 73 114 0.0 0.0 0.00 0.06 0.00 91 1017.1
20260903051006 73 114 0.0 0.0 0.00 0.06 0.00 91 1017.0
20260903050519 73 114 0.0 0.0 0.00 0.06 0.00 91 1017.2
20260903050020 73 114 0.0 0.0 0.00 0.06 0.00 91 1017.2
20260903045514 73 114 0.0 0.0 0.00 0.06 0.06 91 1017.1
20260903045003 73 114 0.0 0.0 0.00 0.06 0.06 91 1017.1
20260903044511 73 114 0.0 0.0 0.00 0.06 0.06 90 1017.2
20260903044008 73 114 0.0 0.0 0.00 0.06 0.06 90 1017.2
20260903043508 73 114 0.0 0.0 0.00 0.06 0.06 91 1017.2
20260903043023 73 114 0.0 0.0 0.00 0.06 0.06 91 1017.2
20260903042510 73 114 0.0 0.0 0.00 0.06 0.06 91 1017.3
20260903042010 73 114 0.0 0.0 0.00 0.06 0.06 91 1017.2
20260903041503 73 114 0.0 1.0 0.00 0.06 0.06 91 1017.1
20260903041003 73 114 0.0 1.0 0.00 0.06 0.06 91 1017.2
20260903040504 73 114 0.0 0.0 0.00 0.06 0.06 91 1017.2
20260903040009 73 114 0.0 0.0 0.00 0.06 0.06 91 1017.3
20260903035502 73 114 0.0 0.0 0.00 0.06 0.06 91 1017.3
20260903035002 73 114 0.0 0.0 0.00 0.06 0.06 91 1017.3
20260903034503 73 114 0.0 0.0 0.00 0.06 0.06 91 1017.2
20260903034002 73 114 0.0 0.0 0.00 0.06 0.06 91 1017.1
20260903033502 73 114 0.0 0.0 0.00 0.06 0.06 91 1017.2
20260903033010 73 114 0.0 0.0 0.00 0.06 0.06 91 1017.2
20260903032506 73 114 0.0 0.0 0.00 0.06 0.06 91 1017.3
20260903032001 73 114 0.0 0.0 0.00 0.06 0.06 90 1017.3
20260903031502 73 114 0.0 0.0 0.00 0.06 0.06 90 1017.3
20260903031002 73 114 0.0 2.0 0.00 0.06 0.06 90 1017.3
20260903030503 73 114 0.0 2.0 0.00 0.06 0.06 90 1017.3
20260903030004 73 114 0.0 2.0 0.00 0.06 0.06 90 1017.3
20260903025502 73 123 0.0 0.0 0.00 0.06 0.06 90 1017.3
20260903025003 73 301 0.0 0.0 0.00 0.06 0.06 90 1017.2
20260903024506 73 301 0.0 0.0 0.00 0.06 0.06 90 1017.1
20260903024004 74 301 0.0 0.0 0.00 0.06 0.06 90 1017.2
20260903023503 74 301 0.0 0.0 0.00 0.06 0.06 90 1017.3
20260903023004 74 301 0.0 0.0 0.00 0.06 0.06 90 1017.4
20260903022502 74 301 0.0 0.0 0.00 0.06 0.06 90 1017.4
20260903022003 74 301 0.0 0.0 0.00 0.06 0.06 90 1017.3
20260903021504 74 301 0.0 0.0 0.00 0.06 0.06 90 1017.3
20260903021003 74 301 0.0 0.0 0.00 0.06 0.06 90 1017.3
20260903020502 74 301 0.0 0.0 0.00 0.06 0.06 90 1017.2
20260903020011 74 301 0.0 0.0 0.00 0.06 0.06 90 1017.1
20260903015504 74 301 0.0 0.0 0.00 0.06 0.06 90 1017.2
20260903015003 74 301 0.0 0.0 0.00 0.06 0.06 90 1017.1
20260903014503 74 301 0.0 0.0 0.00 0.06 0.06 90 1017.1
20260903014003 75 301 0.0 0.0 0.00 0.06 0.06 90 1017.0
20260903013503 75 301 0.0 0.0 0.00 0.06 0.06 89 1017.0
20260903013007 75 301 0.0 0.0 0.00 0.06 0.06 89 1016.7
20260903012503 75 301 0.0 0.0 0.00 0.06 0.06 89 1016.7
20260903012003 75 301 0.0 0.0 0.00 0.06 0.06 89 1016.7
20260903011513 75 301 0.0 0.0 0.00 0.06 0.06 89 1016.7
20260903011003 75 301 0.0 0.0 0.00 0.06 0.06 88 1016.7
20260903010504 76 301 0.0 0.0 0.00 0.06 0.06 88 1016.6
20260903010004 76 301 0.0 0.0 0.00 0.06 0.06 88 1016.5
20260903005504 76 301 0.0 0.0 0.00 0.06 0.06 88 1016.5
20260903005004 76 301 0.0 0.0 0.00 0.06 0.06 88 1016.5
20260903004506 77 301 0.0 0.0 0.00 0.06 0.06 88 1016.5
20260903004004 77 301 0.0 0.0 0.00 0.06 0.06 88 1016.5
20260903003503 77 301 0.0 0.0 0.00 0.06 0.06 88 1016.4
20260903003010 77 301 0.0 0.0 0.00 0.06 0.06 87 1016.4
20260903002504 78 301 0.0 0.0 0.00 0.06 0.06 87 1016.4
20260903002003 78 301 0.0 0.0 0.00 0.06 0.06 86 1016.3
20260903001504 78 301 0.0 1.0 0.00 0.06 0.06 86 1016.4
20260903001006 79 301 0.0 2.0 0.00 0.06 0.06 86 1016.5
20260903000504 79 301 1.0 2.0 0.00 0.06 0.06 85 1016.4
20260903000006 79 171 0.0 4.0 0.00 0.06 0.06 85 1016.4
20260902235505 79 171 0.0 4.0 0.00 0.06 0.06 84 1016.4
20260902235008 80 184 0.0 2.0 0.00 0.06 0.06 84 1016.5
20260902234503 80 277 0.0 2.0 0.00 0.06 0.06 84 1016.3
20260902234006 81 277 0.0 2.0 0.00 0.06 0.06 82 1016.3
20260902233508 81 277 1.0 2.0 0.00 0.06 0.06 81 1016.3
20260902233007 81 257 1.0 2.0 0.00 0.06 0.06 79 1016.3
20260902232508 82 257 0.0 4.0 0.00 0.06 0.06 79 1016.4
20260902232006 82 202 1.0 7.0 0.00 0.06 0.06 75 1016.5
20260902231505 82 258 4.0 7.0 0.01 0.06 0.06 78 1016.4
20260902231004 83 278 1.0 2.0 0.06 0.06 0.06 82 1016.2
20260902230504 83 278 0.0 3.0 0.06 0.06 0.06 79 1016.2
20260902230008 83 278 1.0 7.0 0.06 0.06 0.06 76 1016.2
20260902225504 82 226 3.0 7.0 0.06 0.06 0.06 76 1016.4
20260902225004 83 218 3.0 9.0 0.06 0.06 0.06 75 1016.3
20260902224508 83 190 4.0 9.0 0.06 0.06 0.06 78 1016.3
20260902224006 83 186 1.0 8.0 0.06 0.06 0.06 79 1016.3
20260902223509 84 162 5.0 8.0 0.06 0.06 0.06 76 1016.4
20260902223020 86 26 1.0 5.0 0.06 0.06 0.06 77 1016.3
20260902222504 87 18 1.0 6.0 0.06 0.06 0.06 71 1016.3
20260902222006 90 318 3.0 9.0 0.06 0.06 0.06 65 1016.2
20260902221504 94 298 5.0 9.0 0.05 0.05 0.05 51 1016.3
20260902221003 96 53 5.0 8.0 0.00 0.00 0.00 47 1016.3
20260902220506 95 343 3.0 5.0 0.00 0.00 0.00 46 1016.3
20260902220009 95 360 3.0 6.0 0.00 0.00 0.00 47 1016.4
20260902215504 95 32 2.0 8.0 0.00 0.00 0.00 48 1016.4
20260902215003 95 326 3.0 8.0 0.00 0.00 0.00 46 1016.4
20260902214508 95 360 4.0 7.0 0.00 0.00 0.00 46 1016.4
20260902214007 95 92 1.0 6.0 0.00 0.00 0.00 47 1016.4
20260902213508 95 9 2.0 8.0 0.00 0.00 0.00 48 1016.4